Time,TemperatureF,DewpointF,PressureIn,WindDirection,WindDirectionDegrees,WindSpeedMPH,WindSpeedGustMPH,Humidity,HourlyPrecipIn,Conditions,Clouds,dailyrainin,SoftwareType,DateUTC
2013-01-17 00:00:00,12.0,1.5,30.27,WNW,299,2.0,4.0,62,0.00,,,0.00,VWS V14.01,2013-01-17 06:00:00,
2013-01-17 00:05:00,11.8,1.3,30.28,WNW,295,3.0,4.0,62,0.00,,,0.00,VWS V14.01,2013-01-17 06:05:00,
2013-01-17 00:10:00,11.7,0.9,30.28,NNW,330,0.0,5.0,61,0.00,,,0.00,VWS V14.01,2013-01-17 06:10:00,
2013-01-17 00:15:00,11.5,0.7,30.28,NW,316,1.0,6.0,61,0.00,,,0.00,VWS V14.01,2013-01-17 06:15:00,
2013-01-17 00:20:00,11.4,0.9,30.28,NW,312,0.0,6.0,62,0.00,,,0.00,VWS V14.01,2013-01-17 06:20:00,
2013-01-17 00:26:00,11.3,0.8,30.29,NW,312,0.0,6.0,62,0.00,,,0.00,VWS V14.01,2013-01-17 06:26:00,
2013-01-17 00:31:00,11.2,1.1,30.30,NW,315,0.0,2.0,63,0.00,,,0.00,VWS V14.01,2013-01-17 06:31:00,
2013-01-17 00:36:00,11.1,0.6,30.30,NW,314,1.0,3.0,62,0.00,,,0.00,VWS V14.01,2013-01-17 06:36:00,
2013-01-17 00:41:00,11.1,1.0,30.30,NW,314,0.0,3.0,63,0.00,,,0.00,VWS V14.01,2013-01-17 06:41:00,
2013-01-17 00:46:00,11.1,1.0,30.30,NW,322,0.0,4.0,63,0.00,,,0.00,VWS V14.01,2013-01-17 06:46:00,
2013-01-17 00:51:00,11.0,0.2,30.30,NNW,336,3.0,5.0,61,0.00,,,0.00,VWS V14.01,2013-01-17 06:51:00,
2013-01-17 00:56:00,10.9,-0.2,30.31,NW,316,0.0,5.0,60,0.00,,,0.00,VWS V14.01,2013-01-17 06:56:00,
2013-01-17 01:01:00,10.8,-0.7,30.31,NW,316,0.0,2.0,59,0.00,,,0.00,VWS V14.01,2013-01-17 07:01:00,
2013-01-17 01:06:00,10.8,-0.3,30.31,NW,312,3.0,6.0,60,0.00,,,0.00,VWS V14.01,2013-01-17 07:06:00,
2013-01-17 01:11:00,10.7,-0.8,30.31,NW,312,0.0,6.0,59,0.00,,,0.00,VWS V14.01,2013-01-17 07:11:00,
2013-01-17 01:17:00,10.6,-0.5,30.32,NW,312,0.0,6.0,60,0.00,,,0.00,VWS V14.01,2013-01-17 07:17:00,
2013-01-17 01:22:00,10.6,-0.5,30.33,NW,312,0.0,6.0,60,0.00,,,0.00,VWS V14.01,2013-01-17 07:22:00,
2013-01-17 01:27:00,10.6,-0.5,30.33,NW,312,0.0,6.0,60,0.00,,,0.00,VWS V14.01,2013-01-17 07:27:00,
2013-01-17 01:32:00,10.6,-0.5,30.33,NW,312,0.0,0.0,60,0.00,,,0.00,VWS V14.01,2013-01-17 07:32:00,
2013-01-17 01:37:00,10.7,-0.4,30.33,NW,312,0.0,0.0,60,0.00,,,0.00,VWS V14.01,2013-01-17 07:37:00,
2013-01-17 01:42:00,10.7,-0.8,30.34,NW,312,0.0,0.0,59,0.00,,,0.00,VWS V14.01,2013-01-17 07:42:00,
2013-01-17 01:47:00,10.7,-0.8,30.34,NW,312,0.0,3.0,59,0.00,,,0.00,VWS V14.01,2013-01-17 07:47:00,
2013-01-17 01:52:00,10.7,-0.8,30.34,NW,312,0.0,3.0,59,0.00,,,0.00,VWS V14.01,2013-01-17 07:52:00,
2013-01-17 01:57:00,10.7,-0.8,30.34,NW,312,0.0,3.0,59,0.00,,,0.00,VWS V14.01,2013-01-17 07:57:00,
2013-01-17 02:02:00,10.7,-1.2,30.35,NW,312,0.0,3.0,58,0.00,,,0.00,VWS V14.01,2013-01-17 08:02:00,
2013-01-17 02:07:00,10.8,-1.1,30.35,NW,312,2.0,3.0,58,0.00,,,0.00,VWS V14.01,2013-01-17 08:07:00,
2013-01-17 02:12:00,10.9,-1.0,30.35,NW,306,2.0,4.0,58,0.00,,,0.00,VWS V14.01,2013-01-17 08:12:00,
2013-01-17 02:17:00,10.9,-1.3,30.35,NW,305,0.0,4.0,57,0.00,,,0.00,VWS V14.01,2013-01-17 08:17:00,
2013-01-17 02:22:00,10.9,-1.7,30.35,WNW,301,0.0,4.0,56,0.00,,,0.00,VWS V14.01,2013-01-17 08:22:00,
2013-01-17 02:27:00,10.8,-1.8,30.35,WNW,301,0.0,4.0,56,0.00,,,0.00,VWS V14.01,2013-01-17 08:27:00,
2013-01-17 02:32:00,10.7,-1.9,30.34,WNW,301,0.0,4.0,56,0.00,,,0.00,VWS V14.01,2013-01-17 08:32:00,
2013-01-17 02:37:00,10.4,-1.8,30.34,WNW,301,0.0,4.0,57,0.00,,,0.00,VWS V14.01,2013-01-17 08:37:00,
2013-01-17 02:42:00,10.3,-1.5,30.35,WNW,301,0.0,4.0,58,0.00,,,0.00,VWS V14.01,2013-01-17 08:42:00,
2013-01-17 02:48:00,10.3,-1.9,30.35,WNW,301,0.0,4.0,57,0.00,,,0.00,VWS V14.01,2013-01-17 08:48:00,
2013-01-17 02:53:00,10.3,-1.5,30.35,WNW,301,0.0,4.0,58,0.00,,,0.00,VWS V14.01,2013-01-17 08:53:00,
2013-01-17 02:58:00,10.3,-1.5,30.35,WNW,301,0.0,4.0,58,0.00,,,0.00,VWS V14.01,2013-01-17 08:58:00,
2013-01-17 03:03:00,10.3,-1.9,30.36,WSW,244,2.0,3.0,57,0.00,,,0.00,VWS V14.01,2013-01-17 09:03:00,
2013-01-17 03:08:00,10.2,-2.0,30.36,WSW,244,0.0,3.0,57,0.00,,,0.00,VWS V14.01,2013-01-17 09:08:00,
2013-01-17 03:13:00,10.3,-2.3,30.36,WSW,244,0.0,3.0,56,0.00,,,0.00,VWS V14.01,2013-01-17 09:13:00,
2013-01-17 03:18:00,10.4,-1.8,30.36,WSW,244,0.0,3.0,57,0.00,,,0.00,VWS V14.01,2013-01-17 09:18:00,
2013-01-17 03:23:00,10.3,-1.9,30.35,WSW,245,3.0,3.0,57,0.00,,,0.00,VWS V14.01,2013-01-17 09:23:00,
2013-01-17 03:28:00,10.3,-1.5,30.35,WSW,244,1.0,4.0,58,0.00,,,0.00,VWS V14.01,2013-01-17 09:28:00,
2013-01-17 03:33:00,10.1,-1.7,30.36,WSW,244,0.0,3.0,58,0.00,,,0.00,VWS V14.01,2013-01-17 09:33:00,
2013-01-17 03:38:00,9.8,-2.0,30.36,WSW,246,0.0,4.0,58,0.00,,,0.00,VWS V14.01,2013-01-17 09:38:00,
2013-01-17 03:43:00,9.7,-1.7,30.35,WSW,246,1.0,4.0,59,0.00,,,0.00,VWS V14.01,2013-01-17 09:43:00,
2013-01-17 03:48:00,9.6,-1.8,30.36,WSW,242,4.0,4.0,59,0.00,,,0.00,VWS V14.01,2013-01-17 09:48:00,
2013-01-17 03:53:00,9.5,-1.9,30.36,WSW,241,0.0,4.0,59,0.00,,,0.00,VWS V14.01,2013-01-17 09:53:00,
2013-01-17 03:58:00,9.4,-1.7,30.37,SW,235,2.0,5.0,60,0.00,,,0.00,VWS V14.01,2013-01-17 09:58:00,
2013-01-17 04:03:00,9.3,-1.8,30.37,WSW,238,2.0,5.0,60,0.00,,,0.00,VWS V14.01,2013-01-17 10:03:00,
2013-01-17 04:08:00,9.2,-1.9,30.37,WSW,239,2.0,6.0,60,0.00,,,0.00,VWS V14.01,2013-01-17 10:08:00,
2013-01-17 04:13:00,9.1,-2.0,30.37,WSW,242,2.0,6.0,60,0.00,,,0.00,VWS V14.01,2013-01-17 10:13:00,
2013-01-17 04:18:00,9.0,-1.7,30.37,WSW,243,2.0,6.0,61,0.00,,,0.00,VWS V14.01,2013-01-17 10:18:00,
2013-01-17 04:23:00,8.9,-1.5,30.38,WSW,243,0.0,6.0,62,0.00,,,0.00,VWS V14.01,2013-01-17 10:23:00,
2013-01-17 04:28:00,8.9,-1.1,30.38,WSW,254,2.0,6.0,63,0.00,,,0.00,VWS V14.01,2013-01-17 10:28:00,
2013-01-17 04:33:00,8.6,-1.4,30.38,WNW,301,2.0,7.0,63,0.00,,,0.00,VWS V14.01,2013-01-17 10:33:00,
2013-01-17 04:38:00,8.3,-1.0,30.38,WNW,297,1.0,7.0,65,0.00,,,0.00,VWS V14.01,2013-01-17 10:38:00,
2013-01-17 04:43:00,8.2,-0.8,30.39,WNW,288,2.0,7.0,66,0.00,,,0.00,VWS V14.01,2013-01-17 10:43:00,
2013-01-17 04:49:00,8.1,-0.6,30.39,WNW,287,0.0,7.0,67,0.00,,,0.00,VWS V14.01,2013-01-17 10:49:00,
2013-01-17 04:54:00,8.1,-0.9,30.39,WSW,253,2.0,8.0,66,0.00,,,0.00,VWS V14.01,2013-01-17 10:54:00,
2013-01-17 04:59:00,8.1,-0.9,30.39,WSW,237,4.0,8.0,66,0.00,,,0.00,VWS V14.01,2013-01-17 10:59:00,
2013-01-17 05:04:00,8.0,-1.0,30.39,West,274,3.0,7.0,66,0.00,,,0.00,VWS V14.01,2013-01-17 11:04:00,
2013-01-17 05:09:00,8.0,-1.0,30.39,West,259,4.0,7.0,66,0.00,,,0.00,VWS V14.01,2013-01-17 11:09:00,
2013-01-17 05:14:00,7.9,-1.1,30.39,WSW,242,4.0,7.0,66,0.00,,,0.00,VWS V14.01,2013-01-17 11:14:00,
2013-01-17 05:19:00,8.0,-0.7,30.39,WSW,258,0.0,7.0,67,0.00,,,0.00,VWS V14.01,2013-01-17 11:19:00,
2013-01-17 05:24:00,8.0,-0.7,30.39,WSW,243,1.0,7.0,67,0.00,,,0.00,VWS V14.01,2013-01-17 11:24:00,
2013-01-17 05:29:00,7.9,-1.1,30.39,WSW,256,3.0,7.0,66,0.00,,,0.00,VWS V14.01,2013-01-17 11:29:00,
2013-01-17 05:34:00,7.8,-1.5,30.39,WSW,251,1.0,6.0,65,0.00,,,0.00,VWS V14.01,2013-01-17 11:34:00,
2013-01-17 05:39:00,7.6,-1.7,30.39,WSW,253,6.0,6.0,65,0.00,,,0.00,VWS V14.01,2013-01-17 11:39:00,
2013-01-17 05:44:00,7.6,-1.4,30.38,WSW,253,0.0,6.0,66,0.00,,,0.00,VWS V14.01,2013-01-17 11:44:00,
2013-01-17 05:49:00,7.5,-1.1,30.38,WSW,253,0.0,6.0,67,0.00,,,0.00,VWS V14.01,2013-01-17 11:49:00,
2013-01-17 05:54:00,7.6,-1.0,30.39,WSW,253,1.0,6.0,67,0.00,,,0.00,VWS V14.01,2013-01-17 11:54:00,
2013-01-17 05:59:00,7.6,-1.4,30.38,WSW,241,1.0,1.0,66,0.00,,,0.00,VWS V14.01,2013-01-17 11:59:00,
2013-01-17 06:05:00,7.6,-1.7,30.39,WSW,243,2.0,4.0,65,0.00,,,0.00,VWS V14.01,2013-01-17 12:05:00,
2013-01-17 06:10:00,7.6,-1.4,30.39,WSW,243,0.0,4.0,66,0.00,,,0.00,VWS V14.01,2013-01-17 12:10:00,
2013-01-17 06:15:00,7.4,-1.9,30.39,WSW,256,0.0,6.0,65,0.00,,,0.00,VWS V14.01,2013-01-17 12:15:00,
2013-01-17 06:20:00,7.3,-1.7,30.39,WSW,251,3.0,6.0,66,0.00,,,0.00,VWS V14.01,2013-01-17 12:20:00,
2013-01-17 06:25:00,7.3,-1.7,30.39,WSW,251,0.0,6.0,66,0.00,,,0.00,VWS V14.01,2013-01-17 12:25:00,
2013-01-17 06:30:00,7.2,-1.8,30.39,WSW,249,1.0,3.0,66,0.00,,,0.00,VWS V14.01,2013-01-17 12:30:00,
2013-01-17 06:35:00,7.2,-1.4,30.40,WSW,249,0.0,3.0,67,0.00,,,0.00,VWS V14.01,2013-01-17 12:35:00,
2013-01-17 06:40:00,7.2,-1.4,30.40,WSW,249,0.0,3.0,67,0.00,,,0.00,VWS V14.01,2013-01-17 12:40:00,
2013-01-17 06:45:00,7.2,-1.4,30.40,WSW,249,1.0,3.0,67,0.00,,,0.00,VWS V14.01,2013-01-17 12:45:00,
2013-01-17 06:50:00,7.2,-1.4,30.40,WSW,249,0.0,3.0,67,0.00,,,0.00,VWS V14.01,2013-01-17 12:50:00,
2013-01-17 06:55:00,7.1,-1.5,30.40,WSW,248,0.0,4.0,67,0.00,,,0.00,VWS V14.01,2013-01-17 12:55:00,
2013-01-17 07:00:00,7.2,-1.1,30.40,WSW,249,3.0,3.0,68,0.00,,,0.00,VWS V14.01,2013-01-17 13:00:00,
2013-01-17 07:05:00,7.3,-1.0,30.40,WSW,248,2.0,3.0,68,0.00,,,0.00,VWS V14.01,2013-01-17 13:05:00,
2013-01-17 07:11:00,7.2,-1.1,30.40,WSW,248,0.0,4.0,68,0.00,,,0.00,VWS V14.01,2013-01-17 13:11:00,
2013-01-17 07:16:00,7.2,-0.8,30.40,WSW,249,1.0,4.0,69,0.00,,,0.00,VWS V14.01,2013-01-17 13:16:00,
2013-01-17 07:21:00,7.1,-1.2,30.40,WSW,249,0.0,4.0,68,0.00,,,0.00,VWS V14.01,2013-01-17 13:21:00,
2013-01-17 07:26:00,6.9,-1.1,30.40,WSW,247,3.0,4.0,69,0.00,,,0.00,VWS V14.01,2013-01-17 13:26:00,
2013-01-17 07:31:00,6.8,-1.5,30.40,WSW,247,1.0,1.0,68,0.00,,,0.00,VWS V14.01,2013-01-17 13:31:00,
2013-01-17 07:36:00,6.7,-1.3,30.40,WSW,247,0.0,3.0,69,0.00,,,0.00,VWS V14.01,2013-01-17 13:36:00,
2013-01-17 07:41:00,6.7,-1.3,30.39,WSW,247,0.0,3.0,69,0.00,,,0.00,VWS V14.01,2013-01-17 13:41:00,
2013-01-17 07:46:00,6.6,-1.1,30.40,WSW,243,4.0,5.0,70,0.00,,,0.00,VWS V14.01,2013-01-17 13:46:00,
2013-01-17 07:51:00,6.5,-1.5,30.41,WSW,241,4.0,7.0,69,0.00,,,0.00,VWS V14.01,2013-01-17 13:51:00,
2013-01-17 07:56:00,6.4,-1.6,30.41,SW,229,2.0,7.0,69,0.00,,,0.00,VWS V14.01,2013-01-17 13:56:00,
2013-01-17 08:01:00,6.2,-1.8,30.41,SW,224,4.0,7.0,69,0.00,,,0.00,VWS V14.01,2013-01-17 14:01:00,
2013-01-17 08:06:00,6.2,-1.8,30.41,WSW,237,4.0,8.0,69,0.00,,,0.00,VWS V14.01,2013-01-17 14:06:00,
2013-01-17 08:12:00,6.1,-2.2,30.42,SW,229,4.0,8.0,68,0.00,,,0.00,VWS V14.01,2013-01-17 14:12:00,
2013-01-17 08:17:00,6.1,-2.2,30.42,SW,236,2.0,8.0,68,0.00,,,0.00,VWS V14.01,2013-01-17 14:17:00,
2013-01-17 08:22:00,6.2,-1.8,30.42,SW,233,0.0,8.0,69,0.00,,,0.00,VWS V14.01,2013-01-17 14:22:00,
2013-01-17 08:27:00,6.4,-1.6,30.42,SW,233,2.0,8.0,69,0.00,,,0.00,VWS V14.01,2013-01-17 14:27:00,
2013-01-17 08:32:00,6.6,-1.7,30.42,SW,234,2.0,6.0,68,0.00,,,0.00,VWS V14.01,2013-01-17 14:32:00,
2013-01-17 08:37:00,6.8,-1.5,30.42,SW,231,0.0,6.0,68,0.00,,,0.00,VWS V14.01,2013-01-17 14:37:00,
2013-01-17 08:42:00,7.0,-2.0,30.42,SW,231,4.0,7.0,66,0.00,,,0.00,VWS V14.01,2013-01-17 14:42:00,
2013-01-17 08:47:00,6.9,-2.4,30.42,WSW,241,0.0,7.0,65,0.00,,,0.00,VWS V14.01,2013-01-17 14:47:00,
2013-01-17 08:52:00,7.0,-2.3,30.42,SW,227,0.0,7.0,65,0.00,,,0.00,VWS V14.01,2013-01-17 14:52:00,
2013-01-17 08:57:00,7.2,-2.1,30.43,SW,231,3.0,8.0,65,0.00,,,0.00,VWS V14.01,2013-01-17 14:57:00,
2013-01-17 09:02:00,7.3,-2.3,30.43,SW,236,2.0,6.0,64,0.00,,,0.00,VWS V14.01,2013-01-17 15:02:00,
2013-01-17 09:07:00,7.4,-1.9,30.43,SW,222,0.0,6.0,65,0.00,,,0.00,VWS V14.01,2013-01-17 15:07:00,
2013-01-17 09:12:00,7.6,-1.7,30.43,SW,224,0.0,6.0,65,0.00,,,0.00,VWS V14.01,2013-01-17 15:12:00,
2013-01-17 09:18:00,7.8,-1.5,30.44,SW,228,1.0,6.0,65,0.00,,,0.00,VWS V14.01,2013-01-17 15:18:00,
2013-01-17 09:23:00,8.1,-1.2,30.44,SW,228,0.0,6.0,65,0.00,,,0.00,VWS V14.01,2013-01-17 15:23:00,
2013-01-17 09:28:00,8.3,-1.4,30.44,SW,226,2.0,6.0,64,0.00,,,0.00,VWS V14.01,2013-01-17 15:28:00,
2013-01-17 09:33:00,8.5,-1.5,30.44,SW,236,0.0,5.0,63,0.00,,,0.00,VWS V14.01,2013-01-17 15:33:00,
2013-01-17 09:38:00,8.7,-1.3,30.44,SW,236,3.0,5.0,63,0.00,,,0.00,VWS V14.01,2013-01-17 15:38:00,
2013-01-17 09:43:00,9.0,-1.0,30.44,WSW,237,1.0,5.0,63,0.00,,,0.00,VWS V14.01,2013-01-17 15:43:00,
2013-01-17 09:48:00,9.3,-1.1,30.44,SW,231,0.0,6.0,62,0.00,,,0.00,VWS V14.01,2013-01-17 15:48:00,
2013-01-17 09:53:00,9.5,-0.9,30.44,SW,232,0.0,6.0,62,0.00,,,0.00,VWS V14.01,2013-01-17 15:53:00,
2013-01-17 09:58:00,9.7,-0.3,30.44,SW,232,4.0,6.0,63,0.00,,,0.00,VWS V14.01,2013-01-17 15:58:00,
2013-01-17 10:03:00,9.8,-0.3,30.44,SW,231,0.0,2.0,63,0.00,,,0.00,VWS V14.01,2013-01-17 16:03:00,
2013-01-17 10:08:00,10.0,-0.4,30.44,SW,229,0.0,3.0,62,0.00,,,0.00,VWS V14.01,2013-01-17 16:08:00,
2013-01-17 10:13:00,10.2,-0.2,30.44,SW,231,1.0,9.0,62,0.00,,,0.00,VWS V14.01,2013-01-17 16:13:00,
2013-01-17 10:18:00,10.3,-0.1,30.44,SW,224,5.0,9.0,62,0.00,,,0.00,VWS V14.01,2013-01-17 16:18:00,
2013-01-17 10:24:00,10.5,0.4,30.45,WSW,242,3.0,9.0,63,0.00,,,0.00,VWS V14.01,2013-01-17 16:24:00,
2013-01-17 10:29:00,10.7,0.3,30.45,SW,228,3.0,9.0,62,0.00,,,0.00,VWS V14.01,2013-01-17 16:29:00,
2013-01-17 10:34:00,10.9,0.1,30.45,WSW,256,6.0,8.0,61,0.00,,,0.00,VWS V14.01,2013-01-17 16:34:00,
2013-01-17 10:39:00,10.9,-0.2,30.45,WSW,237,3.0,8.0,60,0.00,,,0.00,VWS V14.01,2013-01-17 16:39:00,
2013-01-17 10:44:00,11.0,0.5,30.44,West,270,3.0,8.0,62,0.00,,,0.00,VWS V14.01,2013-01-17 16:44:00,
2013-01-17 10:49:00,11.2,0.7,30.45,WSW,238,0.0,8.0,62,0.00,,,0.00,VWS V14.01,2013-01-17 16:49:00,
2013-01-17 10:54:00,11.3,1.2,30.45,SW,235,3.0,10.0,63,0.00,,,0.00,VWS V14.01,2013-01-17 16:54:00,
2013-01-17 10:59:00,11.4,2.3,30.45,WSW,237,0.0,11.0,66,0.00,,,0.00,VWS V14.01,2013-01-17 16:59:00,
2013-01-17 11:04:00,11.6,2.5,30.45,SW,235,0.0,7.0,66,0.00,,,0.00,VWS V14.01,2013-01-17 17:04:00,
2013-01-17 11:09:00,11.6,2.5,30.45,SW,224,0.0,7.0,66,0.00,,,0.00,VWS V14.01,2013-01-17 17:09:00,
2013-01-17 11:14:00,11.7,2.5,30.45,WSW,237,1.0,7.0,66,0.00,,,0.00,VWS V14.01,2013-01-17 17:14:00,
2013-01-17 11:19:00,11.9,3.1,30.45,WSW,238,0.0,7.0,67,0.00,,,0.00,VWS V14.01,2013-01-17 17:19:00,
2013-01-17 11:24:00,12.2,3.3,30.45,SW,235,0.0,7.0,67,0.00,,,0.00,VWS V14.01,2013-01-17 17:24:00,
2013-01-17 11:29:00,12.5,3.3,30.44,SW,233,2.0,7.0,66,0.00,,,0.00,VWS V14.01,2013-01-17 17:29:00,
2013-01-17 11:34:00,12.8,3.6,30.45,WSW,237,3.0,8.0,66,0.00,,,0.00,VWS V14.01,2013-01-17 17:34:00,
2013-01-17 11:39:00,12.8,2.9,30.45,SW,219,6.0,8.0,64,0.00,,,0.00,VWS V14.01,2013-01-17 17:39:00,
2013-01-17 11:44:00,12.9,3.0,30.44,SW,226,0.0,8.0,64,0.00,,,0.00,VWS V14.01,2013-01-17 17:44:00,
2013-01-17 11:50:00,13.1,3.6,30.44,SW,231,3.0,8.0,65,0.00,,,0.00,VWS V14.01,2013-01-17 17:50:00,
2013-01-17 11:55:00,13.4,3.2,30.44,WSW,246,5.0,8.0,63,0.00,,,0.00,VWS V14.01,2013-01-17 17:55:00,
2013-01-17 12:00:00,13.7,3.8,30.44,WSW,239,0.0,0.0,64,0.00,,,0.00,VWS V14.01,2013-01-17 18:00:00,
2013-01-17 12:05:00,14.1,3.5,30.44,WSW,237,7.0,8.0,62,0.00,,,0.00,VWS V14.01,2013-01-17 18:05:00,
2013-01-17 12:10:00,14.4,3.8,30.43,SW,221,0.0,9.0,62,0.00,,,0.00,VWS V14.01,2013-01-17 18:10:00,
2013-01-17 12:15:00,14.8,3.4,30.43,WSW,251,3.0,9.0,60,0.00,,,0.00,VWS V14.01,2013-01-17 18:15:00,
2013-01-17 12:20:00,15.2,3.1,30.43,WSW,249,4.0,9.0,58,0.00,,,0.00,VWS V14.01,2013-01-17 18:20:00,
2013-01-17 12:25:00,15.5,2.6,30.43,WSW,241,5.0,10.0,56,0.00,,,0.00,VWS V14.01,2013-01-17 18:25:00,
2013-01-17 12:30:00,15.8,3.3,30.43,WSW,250,4.0,5.0,57,0.00,,,0.00,VWS V14.01,2013-01-17 18:30:00,
2013-01-17 12:35:00,16.1,3.6,30.43,West,264,7.0,8.0,57,0.00,,,0.00,VWS V14.01,2013-01-17 18:35:00,
2013-01-17 12:40:00,16.3,4.1,30.44,WSW,242,2.0,9.0,58,0.00,,,0.00,VWS V14.01,2013-01-17 18:40:00,
2013-01-17 12:45:00,16.6,4.0,30.44,WSW,243,1.0,9.0,57,0.00,,,0.00,VWS V14.01,2013-01-17 18:45:00,
2013-01-17 12:50:00,16.9,4.3,30.43,WSW,258,0.0,9.0,57,0.00,,,0.00,VWS V14.01,2013-01-17 18:50:00,
2013-01-17 12:55:00,17.1,4.5,30.43,WSW,251,6.0,9.0,57,0.00,,,0.00,VWS V14.01,2013-01-17 18:55:00,
2013-01-17 13:00:00,17.1,4.9,30.43,WSW,239,3.0,8.0,58,0.00,,,0.00,VWS V14.01,2013-01-17 19:00:00,
2013-01-17 13:05:00,17.0,5.2,30.43,West,274,2.0,9.0,59,0.00,,,0.00,VWS V14.01,2013-01-17 19:05:00,
2013-01-17 13:10:00,17.1,5.2,30.42,SW,224,5.0,12.0,59,0.00,,,0.00,VWS V14.01,2013-01-17 19:10:00,
2013-01-17 13:16:00,17.4,5.5,30.42,WSW,237,4.0,12.0,59,0.00,,,0.00,VWS V14.01,2013-01-17 19:16:00,
2013-01-17 13:21:00,17.5,6.0,30.42,WNW,287,4.0,12.0,60,0.00,,,0.00,VWS V14.01,2013-01-17 19:21:00,
2013-01-17 13:26:00,17.7,5.8,30.42,SW,233,4.0,12.0,59,0.00,,,0.00,VWS V14.01,2013-01-17 19:26:00,
2013-01-17 13:31:00,17.9,6.0,30.42,West,272,4.0,7.0,59,0.00,,,0.00,VWS V14.01,2013-01-17 19:31:00,
2013-01-17 13:36:00,18.1,6.6,30.42,SW,231,5.0,7.0,60,0.00,,,0.00,VWS V14.01,2013-01-17 19:36:00,
2013-01-17 13:41:00,18.3,6.4,30.42,SSW,198,4.0,9.0,59,0.00,,,0.00,VWS V14.01,2013-01-17 19:41:00,
2013-01-17 13:46:00,18.4,6.5,30.42,SW,222,4.0,11.0,59,0.00,,,0.00,VWS V14.01,2013-01-17 19:46:00,
2013-01-17 13:51:00,18.6,7.0,30.42,West,268,5.0,11.0,60,0.00,,,0.00,VWS V14.01,2013-01-17 19:51:00,
2013-01-17 13:56:00,18.8,7.6,30.42,West,265,1.0,11.0,61,0.00,,,0.00,VWS V14.01,2013-01-17 19:56:00,
2013-01-17 14:01:00,19.0,7.1,30.42,WSW,249,1.0,11.0,59,0.00,,,0.00,VWS V14.01,2013-01-17 20:01:00,
2013-01-17 14:06:00,19.0,7.1,30.42,WSW,254,6.0,12.0,59,0.00,,,0.00,VWS V14.01,2013-01-17 20:06:00,
2013-01-17 14:11:00,19.0,7.4,30.42,WSW,255,5.0,12.0,60,0.00,,,0.00,VWS V14.01,2013-01-17 20:11:00,
2013-01-17 14:16:00,18.9,6.9,30.41,WSW,244,4.0,12.0,59,0.00,,,0.00,VWS V14.01,2013-01-17 20:16:00,
2013-01-17 14:21:00,18.9,7.3,30.42,West,270,3.0,12.0,60,0.00,,,0.00,VWS V14.01,2013-01-17 20:21:00,
2013-01-17 14:26:00,18.8,7.2,30.41,WSW,252,0.0,12.0,60,0.00,,,0.00,VWS V14.01,2013-01-17 20:26:00,
2013-01-17 14:31:00,18.9,7.3,30.41,West,278,0.0,7.0,60,0.00,,,0.00,VWS V14.01,2013-01-17 20:31:00,
2013-01-17 14:36:00,18.8,7.2,30.41,West,266,4.0,10.0,60,0.00,,,0.00,VWS V14.01,2013-01-17 20:36:00,
2013-01-17 14:41:00,18.8,6.9,30.42,West,275,2.0,10.0,59,0.00,,,0.00,VWS V14.01,2013-01-17 20:41:00,
2013-01-17 14:46:00,18.8,7.2,30.42,WSW,253,6.0,10.0,60,0.00,,,0.00,VWS V14.01,2013-01-17 20:46:00,
2013-01-17 14:51:00,18.8,7.2,30.42,West,262,7.0,10.0,60,0.00,,,0.00,VWS V14.01,2013-01-17 20:51:00,
2013-01-17 14:56:00,18.9,7.7,30.42,WSW,237,4.0,10.0,61,0.00,,,0.00,VWS V14.01,2013-01-17 20:56:00,
2013-01-17 15:02:00,19.1,7.9,30.42,West,262,4.0,6.0,61,0.00,,,0.00,VWS V14.01,2013-01-17 21:02:00,
2013-01-17 15:07:00,19.2,7.6,30.42,WSW,248,5.0,9.0,60,0.00,,,0.00,VWS V14.01,2013-01-17 21:07:00,
2013-01-17 15:12:00,19.3,8.1,30.42,West,272,6.0,10.0,61,0.00,,,0.00,VWS V14.01,2013-01-17 21:12:00,
2013-01-17 15:17:00,19.2,8.0,30.42,West,278,8.0,10.0,61,0.00,,,0.00,VWS V14.01,2013-01-17 21:17:00,
2013-01-17 15:22:00,19.2,8.0,30.42,WNW,283,6.0,10.0,61,0.00,,,0.00,VWS V14.01,2013-01-17 21:22:00,
2013-01-17 15:27:00,19.2,8.0,30.42,West,265,4.0,10.0,61,0.00,,,0.00,VWS V14.01,2013-01-17 21:27:00,
2013-01-17 15:32:00,19.1,8.2,30.42,West,269,2.0,6.0,62,0.00,,,0.00,VWS V14.01,2013-01-17 21:32:00,
2013-01-17 15:37:00,19.0,8.1,30.42,West,272,1.0,8.0,62,0.00,,,0.00,VWS V14.01,2013-01-17 21:37:00,
2013-01-17 15:42:00,19.1,8.2,30.42,West,265,0.0,8.0,62,0.00,,,0.00,VWS V14.01,2013-01-17 21:42:00,
2013-01-17 15:47:00,19.1,8.2,30.43,West,268,1.0,8.0,62,0.00,,,0.00,VWS V14.01,2013-01-17 21:47:00,
2013-01-17 15:52:00,19.1,8.6,30.43,WSW,252,0.0,8.0,63,0.00,,,0.00,VWS V14.01,2013-01-17 21:52:00,
2013-01-17 15:57:00,19.1,8.6,30.43,WSW,258,4.0,8.0,63,0.00,,,0.00,VWS V14.01,2013-01-17 21:57:00,
2013-01-17 16:02:00,19.1,8.6,30.43,NNW,337,0.0,4.0,63,0.00,,,0.00,VWS V14.01,2013-01-17 22:02:00,
2013-01-17 16:07:00,19.1,8.6,30.43,West,280,4.0,6.0,63,0.00,,,0.00,VWS V14.01,2013-01-17 22:07:00,
2013-01-17 16:13:00,19.0,8.8,30.44,West,278,4.0,6.0,64,0.00,,,0.00,VWS V14.01,2013-01-17 22:13:00,
2013-01-17 16:18:00,19.0,8.8,30.44,West,268,4.0,6.0,64,0.00,,,0.00,VWS V14.01,2013-01-17 22:18:00,
2013-01-17 16:23:00,19.1,8.9,30.43,West,268,0.0,6.0,64,0.00,,,0.00,VWS V14.01,2013-01-17 22:23:00,
2013-01-17 16:28:00,19.0,8.8,30.43,West,268,5.0,12.0,64,0.00,,,0.00,VWS V14.01,2013-01-17 22:28:00,
2013-01-17 16:33:00,18.9,8.8,30.43,West,276,1.0,7.0,64,0.00,,,0.00,VWS V14.01,2013-01-17 22:33:00,
2013-01-17 16:38:00,18.8,9.0,30.43,West,276,2.0,7.0,65,0.00,,,0.00,VWS V14.01,2013-01-17 22:38:00,
2013-01-17 16:43:00,18.6,8.8,30.44,WSW,244,4.0,7.0,65,0.00,,,0.00,VWS V14.01,2013-01-17 22:43:00,
2013-01-17 16:48:00,18.5,9.1,30.44,WSW,243,0.0,7.0,66,0.00,,,0.00,VWS V14.01,2013-01-17 22:48:00,
2013-01-17 16:53:00,18.4,9.0,30.44,WSW,247,0.0,7.0,66,0.00,,,0.00,VWS V14.01,2013-01-17 22:53:00,
2013-01-17 16:58:00,18.2,9.1,30.43,WSW,249,0.0,7.0,67,0.00,,,0.00,VWS V14.01,2013-01-17 22:58:00,
2013-01-17 17:03:00,18.0,8.9,30.43,WSW,241,0.0,5.0,67,0.00,,,0.00,VWS V14.01,2013-01-17 23:03:00,
2013-01-17 17:08:00,17.9,9.1,30.43,WSW,241,2.0,5.0,68,0.00,,,0.00,VWS V14.01,2013-01-17 23:08:00,
2013-01-17 17:13:00,17.9,9.1,30.43,WSW,241,4.0,5.0,68,0.00,,,0.00,VWS V14.01,2013-01-17 23:13:00,
2013-01-17 17:18:00,17.8,9.0,30.42,WSW,241,0.0,5.0,68,0.00,,,0.00,VWS V14.01,2013-01-17 23:18:00,
2013-01-17 17:24:00,17.7,8.9,30.43,WSW,241,3.0,5.0,68,0.00,,,0.00,VWS V14.01,2013-01-17 23:24:00,
2013-01-17 17:29:00,17.7,8.9,30.43,WSW,241,0.0,5.0,68,0.00,,,0.00,VWS V14.01,2013-01-17 23:29:00,
2013-01-17 17:34:00,17.6,9.2,30.44,WSW,241,0.0,1.0,69,0.00,,,0.00,VWS V14.01,2013-01-17 23:34:00,
2013-01-17 17:39:00,17.5,9.1,30.44,WSW,237,2.0,4.0,69,0.00,,,0.00,VWS V14.01,2013-01-17 23:39:00,
2013-01-17 17:44:00,17.2,8.8,30.44,SW,235,0.0,5.0,69,0.00,,,0.00,VWS V14.01,2013-01-17 23:44:00,
2013-01-17 17:49:00,17.1,9.0,30.44,SW,221,1.0,5.0,70,0.00,,,0.00,VWS V14.01,2013-01-17 23:49:00,
2013-01-17 17:54:00,16.9,8.8,30.44,SW,221,0.0,5.0,70,0.00,,,0.00,VWS V14.01,2013-01-17 23:54:00,
2013-01-17 17:59:00,16.8,8.7,30.44,SW,221,0.0,5.0,70,0.00,,,0.00,VWS V14.01,2013-01-17 23:59:00,
2013-01-17 18:04:00,16.8,8.7,30.43,SW,221,0.0,0.0,70,0.00,,,0.00,VWS V14.01,2013-01-18 00:04:00,
2013-01-17 18:09:00,16.8,9.0,30.43,SW,221,0.0,4.0,71,0.00,,,0.00,VWS V14.01,2013-01-18 00:09:00,
2013-01-17 18:14:00,16.7,8.9,30.44,SW,221,0.0,4.0,71,0.00,,,0.00,VWS V14.01,2013-01-18 00:14:00,
2013-01-17 18:19:00,16.7,8.9,30.44,SW,221,0.0,4.0,71,0.00,,,0.00,VWS V14.01,2013-01-18 00:19:00,
2013-01-17 18:24:00,16.8,9.0,30.43,SW,221,0.0,4.0,71,0.00,,,0.00,VWS V14.01,2013-01-18 00:24:00,
2013-01-17 18:29:00,16.7,8.9,30.44,SW,221,0.0,4.0,71,0.00,,,0.00,VWS V14.01,2013-01-18 00:29:00,
2013-01-17 18:34:00,16.7,8.9,30.44,SW,221,2.0,3.0,71,0.00,,,0.00,VWS V14.01,2013-01-18 00:34:00,
2013-01-17 18:39:00,16.6,8.9,30.44,SW,221,0.0,3.0,71,0.00,,,0.00,VWS V14.01,2013-01-18 00:39:00,
2013-01-17 18:45:00,16.5,8.8,30.43,SW,221,0.0,3.0,71,0.00,,,0.00,VWS V14.01,2013-01-18 00:45:00,
2013-01-17 18:50:00,16.7,9.3,30.44,SW,221,0.0,3.0,72,0.00,,,0.00,VWS V14.01,2013-01-18 00:50:00,
2013-01-17 18:55:00,16.8,9.4,30.43,SW,221,0.0,3.0,72,0.00,,,0.00,VWS V14.01,2013-01-18 00:55:00,
2013-01-17 19:00:00,17.1,9.6,30.43,SW,221,0.0,0.0,72,0.00,,,0.00,VWS V14.01,2013-01-18 01:00:00,
2013-01-17 19:05:00,17.2,9.7,30.44,SW,221,0.0,0.0,72,0.00,,,0.00,VWS V14.01,2013-01-18 01:05:00,
2013-01-17 19:10:00,17.4,9.6,30.44,SW,221,0.0,0.0,71,0.00,,,0.00,VWS V14.01,2013-01-18 01:10:00,
2013-01-17 19:15:00,17.6,9.8,30.43,SW,221,0.0,1.0,71,0.00,,,0.00,VWS V14.01,2013-01-18 01:15:00,
2013-01-17 19:20:00,17.8,9.7,30.43,SW,221,0.0,1.0,70,0.00,,,0.00,VWS V14.01,2013-01-18 01:20:00,
2013-01-17 19:25:00,17.9,10.1,30.43,SW,221,0.0,1.0,71,0.00,,,0.00,VWS V14.01,2013-01-18 01:25:00,
2013-01-17 19:30:00,17.9,9.8,30.43,SW,221,0.0,0.0,70,0.00,,,0.00,VWS V14.01,2013-01-18 01:30:00,
2013-01-17 19:35:00,17.9,9.8,30.43,SW,221,0.0,0.0,70,0.00,,,0.00,VWS V14.01,2013-01-18 01:35:00,
2013-01-17 19:40:00,18.0,9.9,30.44,SW,221,0.0,2.0,70,0.00,,,0.00,VWS V14.01,2013-01-18 01:40:00,
2013-01-17 19:46:00,18.0,9.9,30.43,SW,221,0.0,2.0,70,0.00,,,0.00,VWS V14.01,2013-01-18 01:46:00,
2013-01-17 19:51:00,18.0,10.2,30.43,SW,221,0.0,2.0,71,0.00,,,0.00,VWS V14.01,2013-01-18 01:51:00,
2013-01-17 19:56:00,18.2,10.4,30.43,SW,221,0.0,2.0,71,0.00,,,0.00,VWS V14.01,2013-01-18 01:56:00,
2013-01-17 20:01:00,18.3,10.2,30.42,SW,221,0.0,0.0,70,0.00,,,0.00,VWS V14.01,2013-01-18 02:01:00,
2013-01-17 20:06:00,18.4,10.3,30.43,SW,221,0.0,0.0,70,0.00,,,0.00,VWS V14.01,2013-01-18 02:06:00,
2013-01-17 20:11:00,18.6,10.1,30.43,SW,221,0.0,0.0,69,0.00,,,0.00,VWS V14.01,2013-01-18 02:11:00,
2013-01-17 20:16:00,18.7,10.6,30.43,SW,221,0.0,0.0,70,0.00,,,0.00,VWS V14.01,2013-01-18 02:16:00,
2013-01-17 20:21:00,18.9,10.8,30.43,SW,221,0.0,0.0,70,0.00,,,0.00,VWS V14.01,2013-01-18 02:21:00,
2013-01-17 20:26:00,18.9,10.8,30.43,SW,221,0.0,0.0,70,0.00,,,0.00,VWS V14.01,2013-01-18 02:26:00,
2013-01-17 20:31:00,18.8,10.6,30.43,SW,221,0.0,0.0,70,0.00,,,0.00,VWS V14.01,2013-01-18 02:31:00,
2013-01-17 20:36:00,18.5,10.7,30.43,SW,221,0.0,0.0,71,0.00,,,0.00,VWS V14.01,2013-01-18 02:36:00,
2013-01-17 20:41:00,18.2,10.1,30.43,SW,221,0.0,0.0,70,0.00,,,0.00,VWS V14.01,2013-01-18 02:41:00,
2013-01-17 20:46:00,18.0,10.2,30.42,SW,221,0.0,0.0,71,0.00,,,0.00,VWS V14.01,2013-01-18 02:46:00,
2013-01-17 20:51:00,18.0,10.2,30.42,SW,221,0.0,0.0,71,0.00,,,0.00,VWS V14.01,2013-01-18 02:51:00,
2013-01-17 20:56:00,18.0,10.2,30.42,SW,221,0.0,0.0,71,0.00,,,0.00,VWS V14.01,2013-01-18 02:56:00,
2013-01-17 21:01:00,18.0,10.5,30.42,SW,221,0.0,0.0,72,0.00,,,0.00,VWS V14.01,2013-01-18 03:01:00,
2013-01-17 21:06:00,18.0,10.5,30.42,SW,221,0.0,0.0,72,0.00,,,0.00,VWS V14.01,2013-01-18 03:06:00,
2013-01-17 21:11:00,18.0,10.5,30.42,SW,221,0.0,0.0,72,0.00,,,0.00,VWS V14.01,2013-01-18 03:11:00,
2013-01-17 21:16:00,18.1,10.6,30.42,SW,221,0.0,0.0,72,0.00,,,0.00,VWS V14.01,2013-01-18 03:16:00,
2013-01-17 21:21:00,18.2,10.7,30.42,SW,221,0.0,0.0,72,0.00,,,0.00,VWS V14.01,2013-01-18 03:21:00,
2013-01-17 21:26:00,18.3,10.8,30.42,SW,221,0.0,0.0,72,0.00,,,0.00,VWS V14.01,2013-01-18 03:26:00,
2013-01-17 21:31:00,18.4,10.9,30.41,SW,221,0.0,0.0,72,0.00,,,0.00,VWS V14.01,2013-01-18 03:31:00,
2013-01-17 21:36:00,18.3,10.8,30.41,SW,221,0.0,0.0,72,0.00,,,0.00,VWS V14.01,2013-01-18 03:36:00,
2013-01-17 21:42:00,18.4,10.9,30.40,SW,221,0.0,0.0,72,0.00,,,0.00,VWS V14.01,2013-01-18 03:42:00,
2013-01-17 21:47:00,18.3,10.8,30.40,SW,221,0.0,0.0,72,0.00,,,0.00,VWS V14.01,2013-01-18 03:47:00,
2013-01-17 21:52:00,18.3,10.8,30.40,SW,221,0.0,0.0,72,0.00,,,0.00,VWS V14.01,2013-01-18 03:52:00,
2013-01-17 21:57:00,18.3,10.8,30.40,SW,221,0.0,0.0,72,0.00,,,0.00,VWS V14.01,2013-01-18 03:57:00,
2013-01-17 22:02:00,18.4,11.2,30.40,SW,221,0.0,0.0,73,0.00,,,0.00,VWS V14.01,2013-01-18 04:02:00,
2013-01-17 22:07:00,18.5,11.0,30.40,SW,221,0.0,0.0,72,0.00,,,0.00,VWS V14.01,2013-01-18 04:07:00,
2013-01-17 22:12:00,18.6,11.1,30.40,SW,221,0.0,0.0,72,0.00,,,0.00,VWS V14.01,2013-01-18 04:12:00,
2013-01-17 22:17:00,18.6,11.1,30.39,SW,221,0.0,0.0,72,0.00,,,0.00,VWS V14.01,2013-01-18 04:17:00,
2013-01-17 22:22:00,18.6,11.1,30.39,SW,221,0.0,0.0,72,0.00,,,0.00,VWS V14.01,2013-01-18 04:22:00,
2013-01-17 22:27:00,18.7,11.2,30.39,SW,221,0.0,0.0,72,0.00,,,0.00,VWS V14.01,2013-01-18 04:27:00,
2013-01-17 22:32:00,18.7,11.2,30.39,SW,221,0.0,0.0,72,0.00,,,0.00,VWS V14.01,2013-01-18 04:32:00,
2013-01-17 22:37:00,18.4,10.9,30.39,SW,221,0.0,0.0,72,0.00,,,0.00,VWS V14.01,2013-01-18 04:37:00,
2013-01-17 22:42:00,17.8,10.9,30.39,SW,221,0.0,0.0,74,0.00,,,0.00,VWS V14.01,2013-01-18 04:42:00,
2013-01-17 22:47:00,17.4,10.9,30.38,SW,221,0.0,0.0,75,0.00,,,0.00,VWS V14.01,2013-01-18 04:47:00,
2013-01-17 22:52:00,17.1,10.9,30.38,SW,221,0.0,0.0,76,0.00,,,0.00,VWS V14.01,2013-01-18 04:52:00,
2013-01-17 22:57:00,17.0,10.8,30.38,SW,221,0.0,0.0,76,0.00,,,0.00,VWS V14.01,2013-01-18 04:57:00,
2013-01-17 23:01:00,17.0,10.8,30.37,SW,221,0.0,0.0,76,0.00,,,0.00,VWS V14.01,2013-01-18 05:01:00,
2013-01-17 23:03:00,16.9,10.7,30.37,SW,221,0.0,0.0,76,0.00,,,0.00,VWS V14.01,2013-01-18 05:03:00,
2013-01-17 23:04:00,17.0,10.8,30.37,SW,221,0.0,0.0,76,0.00,,,0.00,VWS V14.01,2013-01-18 05:04:00,
2013-01-17 23:09:00,17.0,11.1,30.37,SW,221,0.0,0.0,77,0.00,,,0.00,VWS V14.01,2013-01-18 05:09:00,
2013-01-17 23:14:00,17.1,10.9,30.37,SW,221,0.0,0.0,76,0.00,,,0.00,VWS V14.01,2013-01-18 05:14:00,
2013-01-17 23:19:00,17.3,11.1,30.37,SW,221,0.0,0.0,76,0.00,,,0.00,VWS V14.01,2013-01-18 05:19:00,
2013-01-17 23:24:00,17.3,11.1,30.36,SW,221,0.0,0.0,76,0.00,,,0.00,VWS V14.01,2013-01-18 05:24:00,
2013-01-17 23:29:00,17.4,11.4,30.36,SW,221,0.0,0.0,77,0.00,,,0.00,VWS V14.01,2013-01-18 05:29:00,
2013-01-17 23:34:00,17.4,11.4,30.36,SW,221,0.0,0.0,77,0.00,,,0.00,VWS V14.01,2013-01-18 05:34:00,
2013-01-17 23:39:00,17.4,11.4,30.36,SW,221,0.0,0.0,77,0.00,,,0.00,VWS V14.01,2013-01-18 05:39:00,
2013-01-17 23:44:00,17.3,11.3,30.36,SW,221,0.0,0.0,77,0.00,,,0.00,VWS V14.01,2013-01-18 05:44:00,
2013-01-17 23:49:00,17.2,11.2,30.36,SW,221,0.0,0.0,77,0.00,,,0.00,VWS V14.01,2013-01-18 05:49:00,
2013-01-17 23:54:00,17.2,11.2,30.35,SW,221,0.0,0.0,77,0.00,,,0.00,VWS V14.01,2013-01-18 05:54:00,
2013-01-17 23:59:00,17.2,11.2,30.35,SW,221,0.0,0.0,77,0.00,,,0.00,VWS V14.01,2013-01-18 05:59:00,